Location: Kelshall
(52.0000°N, 0.0500°W)
Time: 20:45:47
(UTC+00:00)

ATLAS 2AS CENTAUR R/B - Pass Details

Date: 26 January 2021
Orbit: 947 x 1265 km, 63.7° (Epoch: 13 February)

Event Time Altitude Azimuth Distance (km) Brightness Sun altitude
Rises 17:22:05 0° 259° (W) 4,221 8.0 -7.0°
Reaches altitude 10° 17:25:06 10° 266° (W) 3,251 6.7 -7.4°
Maximum altitude 17:32:35 44° 337° (NNW) 1,666 3.8 -8.5°
Drops below altitude 10° 17:39:48 10° 48° (NE) 3,132 4.6 -9.6°
Enters shadow 17:40:11 - 49° (NE) 3,248 4.7 -9.6°
